Wind_Speed
27 26 26 26 26 26 26 26 26 26 26 26 27 27 26 26 26 26 25 25 24 22 21 20 19 19 19 18 18 18 19 20 22 24 26 26 27 27 27 27 28 28
28 27 27 26 26 27 26 27 27 27 28 28 28 28 28 28 27 27 26 25 24 23 22 20 20 19 19 19 19 18 19 20 21 23 24 25 26 27 27 27 27 27
29 28 28 27 27 27 27 27 28 28 28 29 29 29 29 29 29 28 27 26 25 25 23 22 21 20 20 20 20 20 20 20 21 22 23 24 25 26 27 28 27 27
30 30 29 29 29 29 28 28 28 28 29 29 30 30 30 30 30 30 29 28 27 26 25 24 23 22 21 21 21 21 21 21 21 22 23 24 24 25 26 27 28 28
32 31 31 31 31 30 29 29 29 30 30 30 30 31 31 31 31 31 31 30 29 27 26 26 25 25 23 23 22 23 23 22 22 22 23 23 24 24 25 26 27 28
34 33 32 33 33 32 31 31 31 31 31 31 31 32 32 32 32 32 32 32 31 30 28 27 28 27 26 25 25 24 24 24 25 25 25 24 24 24 24 25 25 27
35 34 34 34 34 34 33 33 33 32 32 32 33 33 33 33 33 33 33 33 33 33 31 30 30 29 29 28 27 27 27 27 27 27 27 27 26 25 25 25 25 25
36 35 35 35 35 35 34 34 34 34 34 34 35 35 35 35 35 35 35 35 35 35 34 33 32 31 31 31 30 30 30 30 30 30 29 29 28 28 27 26 25 25
37 37 36 36 35 35 35 35 34 35 35 36 36 36 36 37 37 37 37 37 37 37 37 36 35 33 33 33 33 32 32 32 32 32 31 31 30 30 29 28 27 26
39 38 37 37 36 36 36 35 35 36 36 37 37 37 37 37 38 38 38 39 39 39 38 38 37 36 35 34 34 34 34 34 33 33 33 33 32 31 31 30 29 27
40 40 39 38 37 37 37 36 37 37 38 39 39 39 39 39 39 40 40 41 41 41 41 40 39 38 37 37 36 35 35 34 34 34 34 34 34 33 33 32 31 30
42 41 40 39 38 38 38 38 38 38 39 40 40 40 40 40 41 41 42 43 43 44 44 43 42 41 40 39 38 38 37 36 35 34 34 35 35 35 35 34 33 32
42 42 41 40 39 40 40 39 39 40 40 41 41 41 41 41 42 42 43 44 45 45 46 46 45 44 43 42 41 40 39 39 38 36 35 35 36 37 37 36 36 35
42 42 42 41 41 41 40 40 40 41 41 41 42 42 42 42 43 43 44 45 46 47 47 48 48 47 46 45 44 43 42 41 40 39 38 37 36 37 38 38 38 37
43 43 43 43 42 42 41 41 41 42 42 42 43 43 43 43 44 44 45 46 47 48 49 49 49 49 49 48 46 45 44 44 43 42 41 40 38 37 38 40 40 40
43 43 43 43 43 42 42 42 43 43 43 43 43 44 44 44 45 45 46 47 48 49 50 50 50 50 50 50 49 48 47 46 45 45 44 43 42 40 39 39 41 41
44 44 44 43 42 42 42 42 43 43 44 44 44 44 45 45 46 46 47 47 48 49 50 50 51 51 51 51 52 51 50 49 48 47 47 46 45 44 42 41 40 41
44 43 43 42 41 41 41 42 43 43 44 45 45 46 46 47 47 47 47 47 48 49 49 50 50 50 51 51 52 52 52 52 51 50 49 49 48 47 46 44 42 41
42 41 41 40 40 41 41 43 44 44 45 45 46 46 46 46 46 47 47 48 48 49 50 50 50 51 51 51 52 52 53 53 53 52 51 51 50 50 49 47 46 44
40 40 40 40 41 42 43 44 45 45 45 45 45 46 46 47 48 49 50 51 52 52 53 53 54 54 54 54 53 53 54 54 54 54 53 53 52 52 51 50 49 47
39 39 40 41 43 44 45 44 44 45 45 46 48 49 50 51 53 54 55 56 56 57 58 58 59 59 59 59 59 58 57 57 56 55 55 54 54 54 53 53 51 50
39 40 41 43 44 44 44 45 46 47 49 50 51 52 53 54 55 56 56 57 58 59 59 60 61 62 62 62 63 63 63 62 61 60 58 57 55 54 54 54 53 52
40 41 43 43 43 44 45 47 48 49 50 51 51 52 52 53 54 54 55 55 56 57 58 59 60 61 62 63 64 65 65 65 65 65 64 62 60 58 56 55 54 53
41 42 42 42 43 45 46 47 48 48 48 49 49 50 50 51 51 52 52 53 54 55 56 57 58 59 60 62 63 64 66 67 67 67 66 65 64 63 61 58 55 54
40 41 41 43 43 44 45 45 45 45 45 46 46 46 47 47 48 49 50 50 51 52 53 54 56 57 58 59 60 62 63 65 66 67 67 67 66 64 64 62 60 56
39 40 40 41 41 41 41 41 42 42 42 42 43 43 44 45 46 47 48 49 50 51 51 52 53 54 54 55 57 58 59 61 62 64 65 66 66 65 64 63 62 60
Wind_Direction
278 280 281 281 281 280 280 281 282 283 286 288 290 291 293 295 297 298 297 297 297 296 295 294 293 295 298 301 302 304 305 305 305 304 303 301 297 293 290 288 287 284
278 279 282 283 284 283 283 282 283 284 285 287 289 290 292 294 295 296 296 296 294 293 292 289 287 289 292 296 299 301 304 306 307 308 308 306 301 295 291 288 287 283
277 279 282 285 286 286 285 285 285 285 286 287 288 290 291 293 294 295 295 295 293 291 289 285 282 282 285 290 294 297 300 302 305 308 310 310 306 300 294 290 288 284
278 279 281 283 285 286 287 287 287 287 287 287 289 290 292 293 293 294 294 294 292 290 287 283 280 278 279 283 287 291 295 298 302 305 308 309 308 304 298 293 290 287
278 280 280 282 283 285 287 289 290 290 289 290 291 292 293 293 293 293 293 293 291 289 286 282 279 276 276 277 280 284 289 293 297 300 302 304 305 305 301 296 292 289
279 280 281 283 284 285 287 290 291 291 291 292 292 293 293 293 294 293 292 291 291 288 285 281 278 275 274 275 276 279 284 288 291 294 296 297 299 300 300 298 295 291
280 283 284 286 287 287 289 291 292 293 293 293 292 293 293 293 293 293 292 290 289 288 285 281 278 276 274 273 274 276 279 282 285 288 290 292 294 295 295 296 296 293
281 283 285 286 288 289 291 293 295 295 295 294 293 293 293 293 292 292 292 291 289 288 286 283 280 278 276 274 273 275 276 279 281 284 286 287 288 289 290 291 292 293
281 283 285 286 287 289 291 294 295 295 294 293 292 292 291 291 291 291 291 290 289 288 286 284 282 280 278 275 274 274 275 276 277 279 282 283 284 285 285 285 286 288
281 283 284 285 287 290 293 294 294 294 294 293 292 292 291 290 290 289 289 288 288 287 285 284 283 281 279 278 276 275 275 275 275 275 277 279 280 281 282 282 282 283
282 284 285 287 289 292 294 295 294 295 295 295 294 293 292 291 291 290 289 288 288 287 286 284 283 282 281 280 278 277 276 275 273 273 274 275 277 278 278 279 279 279
283 285 287 289 291 293 294 295 295 296 295 295 294 293 293 292 292 291 290 290 289 288 287 286 285 283 281 280 280 279 277 276 274 273 272 272 273 275 275 275 276 276
284 286 288 290 291 293 294 296 296 296 295 294 294 293 293 292 292 291 290 290 290 289 288 288 286 285 284 282 281 280 279 278 277 275 273 271 271 272 273 273 273 273
284 286 288 290 292 294 295 296 296 296 295 294 294 293 292 292 291 291 290 290 289 289 289 288 287 287 285 284 283 281 280 279 278 277 276 274 271 269 270 271 271 271
284 286 289 292 294 295 296 297 297 296 295 294 293 293 292 292 291 290 290 290 290 289 289 288 287 287 286 285 284 283 281 280 279 278 277 276 274 271 268 268 269 269
285 288 291 293 295 296 297 298 297 296 295 294 293 293 292 291 291 290 290 289 289 289 288 288 287 287 286 285 284 283 282 280 279 278 277 276 275 273 270 268 267 267
286 289 291 293 295 297 298 297 297 296 295 294 293 292 292 291 290 290 290 289 289 288 287 287 287 286 286 285 284 283 282 281 279 278 277 276 275 274 273 270 268 266
287 289 292 294 296 297 297 296 296 296 295 294 294 293 292 292 291 291 291 290 289 288 287 286 286 285 285 284 284 283 282 281 279 278 277 276 275 274 273 272 269 267
288 291 293 295 296 296 297 297 297 297 296 295 295 294 294 294 294 293 292 291 290 289 288 287 286 285 284 284 283 282 281 280 279 278 276 275 274 273 273 272 270 268
291 293 295 295 296 298 299 300 299 299 298 297 297 297 297 296 296 295 294 293 292 290 289 288 287 286 285 284 283 282 281 280 279 278 276 274 273 272 271 270 270 269
293 294 295 296 298 300 301 301 300 300 300 299 299 299 299 298 297 296 295 294 292 291 290 289 287 286 285 284 283 282 281 279 278 277 277 275 273 272 270 269 268 267
293 294 296 298 299 300 301 301 301 301 301 301 301 300 300 299 298 297 296 295 294 293 291 290 289 287 286 285 283 282 280 279 278 276 276 275 274 272 271 269 268 266
293 295 297 298 300 300 301 302 302 302 302 302 302 302 301 300 299 298 297 297 296 295 293 292 291 289 288 286 284 283 281 279 278 276 274 273 273 272 271 269 268 266
295 296 298 299 300 301 302 302 303 303 304 304 304 303 303 303 302 302 301 300 300 299 297 296 294 292 290 287 285 283 281 279 277 276 274 272 271 270 269 269 268 266
296 297 299 300 301 302 303 304 305 305 306 306 306 306 307 307 307 307 307 306 306 305 303 302 300 297 295 292 289 285 282 280 277 275 273 272 270 269 268 267 266 266
297 299 300 302 303 304 306 307 308 308 308 309 309 310 310 311 311 312 312 311 311 310 308 307 305 303 300 297 294 289 285 282 278 275 273 270 268 267 266 265 264 263
Height
5794 5793 5793 5792 5791 5791 5790 5790 5789 5788 5787 5787 5786 5785 5785 5785 5784 5783 5782 5781 5780 5779 5778 5777 5775 5774 5772 5771 5769 5767 5766 5764 5762 5760 5759 5758 5756 5755 5754 5753 5753 5752
5791 5791 5790 5789 5788 5787 5787 5786 5785 5785 5784 5783 5783 5782 5782 5781 5780 5780 5779 5778 5777 5776 5775 5774 5772 5771 5769 5768 5766 5765 5763 5761 5759 5758 5756 5755 5753 5752 5751 5750 5749 5748
5788 5788 5787 5786 5785 5784 5783 5783 5782 5781 5781 5780 5779 5778 5778 5777 5777 5776 5775 5774 5773 5772 5771 5770 5769 5768 5767 5765 5763 5762 5760 5759 5757 5756 5754 5752 5751 5750 5748 5747 5746 5745
5785 5784 5784 5783 5782 5781 5781 5780 5779 5778 5777 5776 5776 5775 5774 5774 5773 5772 5771 5771 5770 5769 5768 5767 5766 5765 5764 5762 5761 5759 5758 5756 5755 5753 5752 5750 5748 5747 5746 5745 5744 5743
5781 5781 5780 5780 5779 5778 5777 5776 5775 5774 5773 5772 5772 5771 5770 5769 5769 5768 5767 5766 5766 5765 5764 5763 5762 5761 5760 5759 5758 5756 5755 5753 5752 5751 5749 5748 5746 5745 5743 5742 5741 5740
5777 5777 5777 5776 5775 5774 5773 5772 5771 5770 5769 5768 5767 5767 5766 5765 5765 5764 5763 5762 5761 5761 5760 5759 5758 5757 5756 5755 5754 5753 5752 5750 5749 5748 5747 5745 5744 5742 5741 5739 5738 5737
5774 5773 5773 5772 5771 5770 5769 5768 5767 5766 5765 5764 5763 5762 5761 5761 5760 5759 5759 5758 5757 5757 5756 5755 5754 5753 5752 5751 5750 5749 5748 5747 5746 5745 5743 5742 5741 5739 5738 5737 5736 5735
5771 5770 5770 5769 5768 5767 5766 5765 5763 5762 5761 5760 5759 5758 5757 5756 5756 5755 5754 5754 5753 5752 5751 5750 5749 5748 5748 5747 5746 5745 5744 5743 5742 5741 5740 5739 5738 5736 5735 5734 5732 5731
5767 5767 5766 5766 5765 5764 5763 5762 5760 5759 5758 5756 5755 5754 5753 5752 5751 5750 5750 5749 5748 5747 5747 5746 5745 5744 5743 5742 5741 5741 5740 5739 5738 5737 5736 5735 5734 5732 5731 5730 5729 5728
5764 5763 5763 5762 5761 5760 5759 5758 5756 5755 5754 5752 5751 5750 5748 5747 5746 5746 5745 5744 5744 5743 5742 5741 5740 5739 5738 5737 5736 5736 5735 5734 5733 5732 5731 5730 5729 5728 5727 5726 5725 5724
5760 5759 5759 5758 5757 5756 5755 5753 5752 5751 5749 5748 5747 5745 5744 5743 5741 5740 5740 5739 5738 5737 5737 5736 5735 5734 5733 5732 5731 5730 5730 5729 5728 5727 5726 5725 5724 5723 5722 5721 5720 5720
5756 5755 5754 5754 5753 5752 5750 5749 5747 5746 5745 5743 5742 5740 5739 5738 5736 5735 5734 5733 5732 5731 5730 5730 5729 5728 5727 5726 5725 5724 5724 5723 5723 5722 5722 5720 5719 5718 5717 5716 5716 5715
5752 5751 5750 5749 5749 5747 5746 5744 5743 5741 5740 5739 5737 5736 5734 5733 5731 5730 5729 5728 5726 5725 5724 5724 5723 5722 5721 5720 5720 5719 5718 5717 5717 5716 5716 5715 5714 5713 5712 5711 5710 5710
5748 5747 5746 5745 5744 5742 5741 5740 5738 5737 5735 5734 5732 5731 5729 5728 5726 5725 5723 5722 5721 5720 5719 5717 5716 5715 5715 5714 5713 5712 5712 5711 5710 5710 5710 5709 5709 5708 5707 5706 5705 5704
5744 5743 5742 5741 5739 5738 5736 5734 5733 5732 5730 5729 5727 5726 5724 5722 5721 5719 5718 5716 5715 5714 5713 5711 5710 5709 5708 5707 5707 5706 5705 5704 5704 5703 5703 5703 5702 5702 5701 5700 5699 5699
5740 5739 5738 5736 5735 5733 5731 5729 5728 5727 5725 5724 5722 5720 5719 5717 5715 5714 5712 5710 5709 5707 5706 5705 5704 5702 5701 5700 5699 5699 5699 5698 5697 5696 5696 5696 5695 5695 5695 5694 5693 5693
5736 5735 5734 5732 5730 5728 5727 5725 5723 5722 5720 5718 5717 5715 5713 5711 5710 5708 5706 5704 5703 5701 5700 5698 5697 5695 5694 5693 5692 5691 5691 5690 5690 5690 5689 5688 5688 5688 5688 5687 5687 5686
5732 5731 5729 5728 5726 5724 5722 5720 5719 5717 5715 5713 5711 5709 5708 5706 5704 5702 5700 5698 5696 5695 5693 5692 5690 5689 5687 5686 5684 5683 5682 5682 5682 5682 5681 5681 5680 5680 5680 5680 5680 5680
5727 5726 5725 5723 5721 5720 5718 5716 5714 5712 5710 5708 5706 5704 5702 5700 5698 5696 5694 5692 5690 5688 5686 5685 5683 5682 5680 5678 5677 5675 5674 5673 5672 5673 5673 5672 5672 5672 5672 5672 5672 5672
5723 5721 5720 5718 5717 5715 5713 5711 5709 5707 5705 5703 5701 5699 5697 5694 5692 5690 5687 5685 5683 5681 5679 5677 5675 5674 5672 5670 5669 5667 5666 5665 5664 5663 5663 5663 5663 5663 5663 5663 5664 5664
5718 5717 5715 5713 5712 5710 5708 5706 5704 5702 5700 5698 5696 5693 5691 5688 5686 5683 5681 5679 5676 5674 5672 5669 5667 5665 5664 5662 5660 5659 5657 5656 5655 5655 5654 5654 5654 5654 5654 5654 5655 5655
5714 5712 5711 5709 5707 5705 5703 5701 5699 5697 5694 5692 5690 5687 5684 5682 5679 5677 5674 5672 5669 5666 5663 5661 5659 5656 5654 5652 5650 5649 5647 5646 5645 5645 5645 5644 5644 5644 5644 5644 5645 5646
5710 5708 5706 5705 5703 5701 5699 5696 5694 5691 5688 5686 5683 5681 5678 5676 5673 5670 5668 5665 5662 5659 5655 5653 5650 5647 5645 5642 5640 5638 5636 5635 5634 5634 5634 5634 5634 5634 5634 5635 5635 5636
5705 5704 5702 5700 5698 5696 5694 5691 5688 5686 5683 5681 5678 5676 5673 5670 5667 5664 5661 5658 5655 5651 5647 5644 5641 5638 5635 5632 5630 5628 5625 5624 5623 5622 5622 5622 5622 5623 5624 5625 5625 5626
5701 5700 5698 5696 5694 5691 5689 5686 5684 5681 5679 5676 5674 5671 5667 5664 5661 5658 5654 5650 5647 5643 5639 5636 5632 5629 5626 5622 5619 5617 5614 5612 5610 5609 5609 5609 5610 5611 5612 5613 5615 5616
5697 5695 5694 5691 5689 5687 5684 5682 5679 5677 5675 5672 5669 5666 5663 5659 5656 5652 5648 5643 5640 5636 5633 5629 5625 5621 5617 5613 5609 5606 5603 5600 5598 5597 5596 5596 5597 5598 5600 5601 5603 5605